Satellite-Ground Cal/Val Region Overpasses Predictions

Prediction of Satellite NPP Overpassing Cal/Val Region: PacNW

Region Location: (Latitude: 10.00, Longitude: 139.50) to (Latitude: 22.70, Longitude: 165.60).

Table of predicted overpasses for the next 14.0 days since TLE Epoch: 5/26/2013
Interval Starting Time Starting Location Ending Time Ending Location
1 05/26/2013 14:29:26 ( 12.22, 165.59) 05/26/2013 14:30:03 ( 10.04, 165.09)
2 05/26/2013 16:07:58 ( 22.66, 142.73) 05/26/2013 16:11:33 ( 10.04, 139.72)
3 05/27/2013 03:17:03 ( 10.01, 150.25) 05/27/2013 03:20:39 ( 22.68, 147.22)
4 05/27/2013 15:48:56 ( 22.70, 147.50) 05/27/2013 15:52:32 ( 10.02, 144.47)
5 05/28/2013 02:58:02 ( 10.03, 155.00) 05/28/2013 03:01:37 ( 22.65, 151.99)
6 05/28/2013 15:29:54 ( 22.67, 152.25) 05/28/2013 15:33:29 ( 10.05, 149.24)
7 05/29/2013 02:39:00 ( 10.05, 159.76) 05/29/2013 02:42:35 ( 22.67, 156.75)
8 05/29/2013 15:10:53 ( 22.65, 157.01) 05/29/2013 15:14:28 ( 10.03, 154.00)
9 05/30/2013 02:19:58 ( 10.01, 164.52) 05/30/2013 02:23:34 ( 22.69, 161.50)
10 05/30/2013 14:51:51 ( 22.69, 161.77) 05/30/2013 14:55:27 ( 10.01, 158.75)
11 05/31/2013 03:42:26 ( 10.04, 143.90) 05/31/2013 03:46:01 ( 22.66, 140.89)
12 05/31/2013 14:33:54 ( 18.85, 165.59) 05/31/2013 14:36:24 ( 10.04, 163.52)
13 05/31/2013 16:14:19 ( 22.66, 141.15) 05/31/2013 16:16:14 ( 15.91, 139.51)
14 06/01/2013 03:23:24 ( 10.01, 148.67) 06/01/2013 03:27:00 ( 22.69, 145.65)
15 06/01/2013 15:55:17 ( 22.69, 145.92) 06/01/2013 15:58:53 ( 10.01, 142.90)
16 06/02/2013 03:04:22 ( 10.03, 153.42) 06/02/2013 03:07:57 ( 22.66, 150.42)
17 06/02/2013 15:36:15 ( 22.66, 150.67) 06/02/2013 15:39:50 ( 10.04, 147.67)
18 06/03/2013 02:45:20 ( 10.00, 158.19) 06/03/2013 02:48:56 ( 22.68, 155.17)
19 06/03/2013 15:17:13 ( 22.69, 155.44) 06/03/2013 15:20:49 ( 10.01, 152.42)
20 06/04/2013 02:26:18 ( 10.03, 162.95) 06/04/2013 02:29:53 ( 22.65, 159.94)
21 06/04/2013 14:58:11 ( 22.66, 160.20) 06/04/2013 15:01:46 ( 10.04, 157.19)
22 06/05/2013 02:09:50 ( 19.05, 165.59) 06/05/2013 02:10:52 ( 22.68, 164.69)
23
